C6061 KFMH-KFMH

Flight info

Callsign C6061
Flight time N/A
Altitude 3500
Route VFR SOUTH
Aircraft H60/L-SDFGRY/C

Departure

Time 2026-05-04 20:44
Airport Cape Cod Coast Guard Air Station (KFMH)

Arrival

Time N/A
Airport Cape Cod Coast Guard Air Station (KFMH)
Time Latitude Longitude Altitude Speed Heading
2026-05-04 20:30 41.66418 -70.51985 130 ft 0 kts 354°
2026-05-04 20:41 41.66443 -70.51994 129 ft 4 kts 314°
2026-05-04 20:41 41.66450 -70.52019 129 ft 3 kts 278°
2026-05-04 20:41 41.66450 -70.52049 131 ft 3 kts 266°
2026-05-04 20:42 41.66450 -70.52060 131 ft 4 kts 265°
2026-05-04 20:42 41.66432 -70.52265 195 ft 36 kts 257°
2026-05-04 20:42 41.66382 -70.52811 252 ft 83 kts 251°
2026-05-04 20:42 41.66033 -70.53321 344 ft 86 kts 208°
2026-05-04 20:43 41.65388 -70.53435 392 ft 101 kts 188°
2026-05-04 20:43 41.64678 -70.53236 514 ft 110 kts 171°
2026-05-04 20:43 41.63930 -70.52700 561 ft 128 kts 161°
2026-05-04 20:43 41.63122 -70.52269 646 ft 125 kts 169°
2026-05-04 20:44 41.62303 -70.51816 673 ft 130 kts 166°
2026-05-04 20:44 41.61512 -70.51198 802 ft 136 kts 152°
2026-05-04 20:44 41.60833 -70.50265 952 ft 141 kts 140°
2026-05-04 20:44 41.60243 -70.49200 897 ft 143 kts 136°
2026-05-04 20:45 41.59649 -70.48142 882 ft 143 kts 136°
2026-05-04 20:45 41.59050 -70.47087 879 ft 141 kts 137°
2026-05-04 20:45 41.58470 -70.46036 885 ft 140 kts 137°
2026-05-04 20:45 41.57898 -70.44993 886 ft 139 kts 137°
2026-05-04 20:46 41.57334 -70.43950 888 ft 137 kts 137°
2026-05-04 20:46 41.56781 -70.42911 892 ft 136 kts 137°
2026-05-04 20:46 41.56240 -70.41890 894 ft 136 kts 137°
2026-05-04 20:46 41.55693 -70.40856 894 ft 136 kts 137°
2026-05-04 20:47 41.55146 -70.39817 895 ft 137 kts 137°
2026-05-04 20:47 41.54599 -70.38769 895 ft 138 kts 137°
2026-05-04 20:47 41.54053 -70.37710 896 ft 138 kts 137°
2026-05-04 20:47 41.53507 -70.36648 896 ft 139 kts 137°
2026-05-04 20:48 41.52976 -70.35597 892 ft 137 kts 137°
2026-05-04 20:48 41.52435 -70.34537 899 ft 141 kts 137°
2026-05-04 20:48 41.51907 -70.33486 900 ft 136 kts 137°
2026-05-04 20:48 41.51382 -70.32431 902 ft 137 kts 137°
2026-05-04 20:49 41.50861 -70.31362 904 ft 138 kts 137°
2026-05-04 20:49 41.50342 -70.30282 883 ft 138 kts 137°
2026-05-04 20:49 41.49823 -70.29196 884 ft 139 kts 137°
2026-05-04 20:49 41.49280 -70.28130 888 ft 139 kts 152°
2026-05-04 20:50 41.48604 -70.27293 892 ft 131 kts 154°
2026-05-04 20:50 41.47932 -70.26492 922 ft 128 kts 154°
2026-05-04 20:50 41.47272 -70.25699 922 ft 128 kts 154°
2026-05-04 20:50 41.46606 -70.24918 924 ft 128 kts 154°
2026-05-04 20:51 41.45913 -70.24159 921 ft 129 kts 154°
2026-05-04 20:51 41.45211 -70.23406 929 ft 130 kts 154°
2026-05-04 20:51 41.44507 -70.22649 930 ft 130 kts 154°
2026-05-04 20:51 41.43803 -70.21892 931 ft 130 kts 154°
2026-05-04 20:52 41.43097 -70.21130 933 ft 130 kts 154°
2026-05-04 20:52 41.42403 -70.20427 938 ft 122 kts 171°
2026-05-04 20:52 41.41669 -70.19952 949 ft 113 kts 184°
2026-05-04 20:52 41.40926 -70.19693 942 ft 106 kts 195°
2026-05-04 20:53 41.40183 -70.19771 934 ft 105 kts 199°
2026-05-04 20:53 41.39444 -70.19946 937 ft 109 kts 199°
2026-05-04 20:53 41.38686 -70.20123 943 ft 111 kts 199°
2026-05-04 20:53 41.37913 -70.20300 935 ft 111 kts 199°
2026-05-04 20:54 41.37157 -70.20457 936 ft 110 kts 199°
2026-05-04 20:54 41.36399 -70.20622 936 ft 110 kts 199°